Location: Tucson
(32.2220°N, 110.9260°W)
Time: 23:23:14
(UTC-07:00)

ISS - Visible Passes

Search period start: 26 April 2018 00:00
Search period end: 06 May 2018 00:00
Orbit: 402 x 407 km, 51.6° (Epoch: 27 April)

Date Brightness Start Highest point End Pass type
(mag) Time Alt. Az. Time Alt. Az. Time Alt. Az.
28 Apr -2.0 04:59:19 10° S 05:02:07 27° SE 05:04:55 10° ENE visible
29 Apr -1.1 04:08:33 10° SSE 04:10:01 13° SE 04:11:29 10° E visible
30 Apr -3.9 04:51:07 13° SW 04:53:53 87° SE 04:57:09 10° NE visible
01 May -2.8 04:01:09 33° SSE 04:01:40 36° SE 04:04:40 10° ENE visible
02 May -0.8 03:11:05 12° E 03:11:05 12° E 03:11:39 10° E visible
02 May -2.7 04:43:44 16° W 04:45:46 31° NW 04:48:43 10° NNE visible
03 May -3.7 03:53:34 67° NNW 03:53:34 67° NNW 03:56:39 10° NE visible
04 May -1.0 03:03:18 18° ENE 03:03:18 18° ENE 03:04:16 10° ENE visible
04 May -1.5 04:35:57 10° WNW 04:37:47 14° NNW 04:39:39 10° N visible
05 May -2.1 03:45:37 24° NNW 03:45:37 24° NNW 03:48:01 10° NNE visible
